Location: Anumalkud?ru
(16.4847°N, 80.6636°E)
Time: 15:48:47
(UTC+00:00)

NATO 3D Rocket - Pass Details

Date: 11 April 2026
Orbit: 670 x 2292 km, 21.5° (Epoch: 11 May)

Event Time Altitude Azimuth Distance (km) Brightness Sun altitude
Rises 13:53:06 0° 283° (WNW) 3,256 8.7 -15.2°
Reaches altitude 10° 13:55:16 10° 282° (WNW) 2,450 7.5 -15.7°
Maximum altitude 14:01:05 77° 196° (SSW) 1,070 4.2 -17.0°
Enters shadow 14:05:53 26° 114° (ESE) 2,234 5.3 -18.2°
